This demonstration page uses our WeatherBlox Daily Observations layout. Learn more.

Left ArrowRight Arrow

Hourly Observations for June 1, 2021

Temp ( °F °C ) Dew Point ( °F °C ) Humidity (%) Winds ( mph kmh ) Pressure ( in mb ) Visibility ( mi km ) Precip ( " mm )
12:15 am 00:15 Clear 54 12 52 11 94 94 WSW 3 6 30.29 1026 10 16 N/A
12:35 am 00:35 Clear 54 12 50 10 88 88 SW 3 6 30.28 1026 10 16 N/A
12:55 am 00:55 Clear 52 11 50 10 94 94 SW 3 6 30.28 1026 10 16 N/A
1:15 am 01:15 Clear 54 12 50 10 88 88 N N/A 30.28 1026 10 16 N/A
1:35 am 01:35 Clear 52 11 50 10 94 94 N N/A 30.28 1026 10 16 N/A
1:55 am 01:55 Clear 50 10 50 10 100 100 N N/A 30.29 1026 10 16 N/A
2:15 am 02:15 Clear 52 11 50 10 94 94 N N/A 30.28 1026 10 16 N/A
2:35 am 02:35 Clear 52 11 50 10 94 94 N N/A 30.28 1026 10 16 N/A
2:55 am 02:55 Clear 50 10 48 9 94 94 N N/A 30.29 1026 10 16 N/A
3:15 am 03:15 Clear 50 10 46 8 88 88 N N/A 30.29 1026 10 16 N/A
3:35 am 03:35 Clear 48 9 46 8 94 94 N N/A 30.29 1026 10 16 N/A
3:55 am 03:55 Clear 48 9 46 8 94 94 N N/A 30.29 1026 10 16 N/A
4:15 am 04:15 Clear 46 8 46 8 100 100 N N/A 30.29 1026 10 16 N/A
4:35 am 04:35 Clear 46 8 46 8 100 100 N N/A 30.29 1026 10 16 N/A
4:55 am 04:55 Clear 46 8 46 8 100 100 N N/A 30.28 1025 10 16 N/A
5:15 am 05:15 Clear 48 9 46 8 94 94 N N/A 30.29 1026 10 16 N/A
5:35 am 05:35 Clear 46 8 46 8 100 100 N N/A 30.29 1026 10 16 N/A
5:55 am 05:55 Sunny 46 8 46 8 100 100 N N/A 30.29 1026 10 16 N/A
6:15 am 06:15 Sunny 46 8 46 8 100 100 NNW 3 6 30.29 1026 10 16 N/A
6:35 am 06:35 Sunny 48 9 46 8 94 94 N N/A 30.30 1026 10 16 N/A
6:55 am 06:55 Sunny 50 10 48 9 94 94 S 3 6 30.31 1026 10 16 N/A
7:15 am 07:15 Sunny 50 10 50 10 100 100 SSW 3 6 30.31 1026 10 16 N/A
7:35 am 07:35 Sunny 52 11 50 10 94 94 N N/A 30.31 1027 10 16 N/A
7:55 am 07:55 Sunny 54 12 50 10 88 88 S 5 7 30.31 1027 10 16 N/A
8:15 am 08:15 Sunny 54 12 52 11 94 94 S 5 7 30.31 1027 10 16 N/A
8:35 am 08:35 Sunny 57 14 52 11 82 82 N N/A 30.31 1026 10 16 N/A
8:55 am 08:55 Sunny 59 15 54 12 82 82 S 3 6 30.30 1026 10 16 N/A
9:15 am 09:15 Sunny 61 16 54 12 77 77 S 3 6 30.30 1026 10 16 N/A
9:35 am 09:35 Sunny 63 17 54 12 73 73 N N/A 30.30 1026 10 16 N/A
9:55 am 09:55 Sunny 63 17 54 12 73 73 N N/A 30.30 1026 10 16 N/A
10:15 am 10:15 Sunny 64 18 54 12 68 68 SE 3 6 30.28 1026 10 16 N/A
10:35 am 10:35 Sunny 66 19 55 13 68 68 SSE 3 6 30.27 1025 10 16 N/A
10:55 am 10:55 Sunny 70 21 55 13 60 60 S 7 11 30.27 1025 10 16 N/A
11:15 am 11:15 Partly Cloudy 72 22 55 13 57 57 SSW 6 9 30.27 1025 10 16 N/A
11:35 am 11:35 Mostly Cloudy 72 22 55 13 57 57 S 7 11 30.25 1024 10 16 N/A
11:55 am 11:55 Partly Cloudy 73 23 55 13 53 53 S 8 13 30.25 1024 10 16 N/A
12:15 pm 12:15 Sunny 73 23 55 13 53 53 SSW 8 13 30.25 1024 10 16 N/A
12:35 pm 12:35 Sunny 73 23 55 13 53 53 S 9 15 30.24 1024 10 16 N/A
12:55 pm 12:55 Sunny 73 23 55 13 53 53 S 10 17 30.24 1024 10 16 N/A
1:15 pm 13:15 Sunny 73 23 55 13 53 53 S 9 15 30.24 1024 10 16 N/A
1:35 pm 13:35 Sunny 75 24 57 14 54 54 SSW 8 13 30.24 1024 10 16 N/A
1:55 pm 13:55 Sunny 77 25 57 14 51 51 WSW 8 13 30.22 1024 10 16 N/A
2:15 pm 14:15 Sunny 75 24 57 14 54 54 S 8 13 30.22 1023 10 16 N/A
2:35 pm 14:35 Sunny 77 25 55 13 47 47 WSW 6 9 30.21 1023 10 16 N/A
2:55 pm 14:55 Partly Cloudy 77 25 55 13 47 47 S 6 9 30.20 1023 10 16 N/A
3:15 pm 15:15 Mostly Cloudy 77 25 55 13 47 47 S 12 19 30.20 1023 10 16 N/A
3:35 pm 15:35 Mostly Cloudy 77 25 55 13 47 47 SSW 5 7 30.20 1023 10 16 N/A
3:55 pm 15:55 Partly Cloudy 77 25 57 14 51 51 S 7 11 30.20 1023 10 16 N/A
4:15 pm 16:15 Sunny 77 25 55 13 47 47 WSW 6 9 30.20 1023 10 16 N/A
4:35 pm 16:35 Partly Cloudy 77 25 55 13 47 47 S 7 11 30.19 1022 10 16 N/A
4:55 pm 16:55 Partly Cloudy 77 25 57 14 51 51 S 8 13 30.19 1022 10 16 N/A
5:15 pm 17:15 Mostly Cloudy 77 25 57 14 51 51 SSW 9 15 30.19 1022 10 16 N/A
5:35 pm 17:35 Mostly Cloudy 75 24 57 14 54 54 S 7 11 30.20 1023 10 16 N/A
5:55 pm 17:55 Partly Cloudy 75 24 57 14 54 54 S 7 11 30.20 1023 10 16 N/A
6:15 pm 18:15 Sunny 75 24 59 15 57 57 S 6 9 30.20 1023 10 16 N/A
6:35 pm 18:35 Sunny 73 23 59 15 61 61 SSW 5 7 30.20 1023 10 16 N/A
6:55 pm 18:55 Sunny 73 23 59 15 61 61 S 3 6 30.20 1023 10 16 N/A
7:15 pm 19:15 Sunny 73 23 59 15 61 61 S 7 11 30.20 1023 10 16 N/A
7:35 pm 19:35 Sunny 73 23 59 15 61 61 S 7 11 30.20 1023 10 16 N/A
7:55 pm 19:55 Partly Cloudy 73 23 59 15 61 61 S 7 11 30.21 1023 10 16 N/A
8:15 pm 20:15 Partly Cloudy 73 23 59 15 61 61 SSE 9 15 30.20 1023 10 16 N/A
8:35 pm 20:35 Clear 72 22 59 15 65 65 S 9 15 30.21 1023 10 16 N/A
8:55 pm 20:55 Clear 72 22 59 15 65 65 S 8 13 30.21 1023 10 16 N/A
9:15 pm 21:15 Partly Cloudy 72 22 59 15 65 65 S 8 13 30.22 1023 10 16 N/A
9:35 pm 21:35 Cloudy 70 21 59 15 69 69 S 6 9 30.22 1023 10 16 N/A
9:55 pm 21:55 Cloudy 70 21 59 15 69 69 S 7 11 30.23 1024 10 16 N/A
10:15 pm 22:15 Mostly Cloudy 70 21 59 15 69 69 SSE 8 13 30.23 1024 10 16 N/A
10:35 pm 22:35 Partly Cloudy 70 21 59 15 69 69 SSE 6 9 30.22 1023 10 16 N/A
10:55 pm 22:55 Clear 68 20 61 16 78 78 SSE 6 9 30.22 1023 10 16 N/A
11:15 pm 23:15 Clear 68 20 61 16 78 78 S 8 13 30.22 1023 10 16 N/A
11:35 pm 23:35 Partly Cloudy 68 20 61 16 78 78 S 5 7 30.23 1024 10 16 N/A
11:55 pm 23:55 Mostly Cloudy 66 19 61 16 83 83 S 9 15 30.23 1024 10 16 N/A

Powered by AerisWeather